Weather History for Wheeler AAF, HI

Change the Weather History Date:

Wednesday, July 23, 2014

  Actual Average Record
Temperature  
Mean Temperature 76 °F -  
Max Temperature 82 °F 80 °F 86 °F (2004)
Min Temperature 71 °F 67 °F 64 °F (2001)
Cooling Degree Days 12    
Growing Degree Days 26 (Base 50)    
Moisture  
Dew Point 68 °F    
Average Humidity 77    
Maximum Humidity 94    
Minimum Humidity 54    
Precipitation  
Precipitation 0.02 in - - ()
Sea Level Pressure  
Sea Level Pressure 30.06 in    
Wind  
Wind Speed 7 mph (ENE)    
Max Wind Speed 16 mph    
Max Gust Speed 23 mph    
Visibility 10 miles    
Events Rain    
Averages and records for this station are not official NWS values.
T = Trace of Precipitation, MM = Missing Value Source: NWS Daily Summary

Daily Weather History Graph

Daily Weather History Graph

Search for Another Location

Airport:

Trip Planner

Search our weather history database for the weather conditions in past years. The results will help you decide how hot, cold, wet, or windy it might be!

Date:

Astronomy

Jul. 23, 2014 Rise Set
Actual Time 6:01 AM HST 7:15 PM HST
Civil Twilight 5:37 AM HST 7:39 PM HST
Nautical Twilight 5:09 AM HST 8:07 PM HST
Astronomical Twilight 4:39 AM HST 8:37 PM HST
Moon 3:27 AM HST (7/23) 4:55 PM HST (7/23)
Length of Visible Light 14h 01m
Length of Day
13h 13m
Waning Crescent, 8% of the Moon is Illuminated
Jul 23
Waning Crescent
Jul 26
New
Aug 3
First Quarter
Aug 10
Full
Aug 17
Last Quarter

Hourly Weather History & Observations

Time (HST) Temp. Heat Index Dew Point Humidity Pressure Visibility Wind Dir Wind Speed Gust Speed Precip Events Conditions
12:03 AM 75.2 °F - 69.8 °F 83% 30.08 in 10.0 mi ENE 8.1 mph - N/A   Scattered Clouds
12:58 AM 73.4 °F - 69.8 °F 88% 30.03 in 10.0 mi NE 4.6 mph - N/A   Mostly Cloudy
1:58 AM 73.4 °F - 69.4 °F 87% 30.02 in 10.0 mi West 2.3 mph - N/A   Overcast
2:13 AM 73.4 °F - 69.8 °F 88% 30.05 in 9.0 mi NW 2.3 mph - N/A   Light Drizzle
2:43 AM 71.6 °F - 69.8 °F 94% 30.04 in 9.0 mi WSW 3.5 mph - N/A   Light Drizzle
2:44 AM 71.6 °F - 69.8 °F 94% 30.04 in 10.0 mi WSW 4.6 mph - N/A   Overcast
2:49 AM 71.6 °F - 69.8 °F 94% 30.04 in 10.0 mi WSW 3.5 mph - N/A   Overcast
2:54 AM 71.6 °F - 69.8 °F 94% 30.04 in 10.0 mi West 3.5 mph - N/A   Overcast
2:58 AM 72.0 °F - 70.2 °F 94% 30.01 in 10.0 mi West 3.5 mph - 0.01 in   Overcast
3:02 AM 71.6 °F - 69.8 °F 94% 30.04 in 10.0 mi West 3.5 mph - N/A   Light Drizzle
3:37 AM 71.6 °F - 69.8 °F 94% 30.03 in 10.0 mi WSW 1.2 mph - N/A   Overcast
3:58 AM 71.8 °F - 70.0 °F 94% 30.00 in 10.0 mi Variable 1.2 mph - 0.01 in   Overcast
4:58 AM 73.0 °F - 68.5 °F 86% 30.00 in 10.0 mi West 3.5 mph - N/A   Overcast
5:58 AM 72.1 °F - 67.8 °F 86% 30.02 in 10.0 mi Variable 2.3 mph - N/A   Overcast
6:13 AM 73.4 °F - 66.2 °F 78% 30.05 in 10.0 mi Variable 4.6 mph - N/A   Scattered Clouds
6:58 AM 73.9 °F - 66.0 °F 76% 30.03 in 10.0 mi ESE 5.8 mph - N/A   Scattered Clouds
7:03 AM 73.4 °F - 66.2 °F 78% 30.06 in 10.0 mi ENE 5.8 mph - N/A   Mostly Cloudy
7:08 AM 73.4 °F - 66.2 °F 78% 30.06 in 10.0 mi East 2.3 mph - N/A   Scattered Clouds
7:13 AM 73.4 °F - 66.2 °F 78% 30.06 in 10.0 mi NE 1.2 mph - N/A   Mostly Cloudy
7:58 AM 75.4 °F - 66.9 °F 75% 30.04 in 10.0 mi ENE 5.8 mph - N/A   Overcast
8:53 AM 78.8 °F - 66.2 °F 65% 30.08 in 10.0 mi East 10.4 mph - N/A   Mostly Cloudy
8:58 AM 78.6 °F - 66.4 °F 66% 30.04 in 10.0 mi ENE 16.1 mph 19.6 mph N/A   Mostly Cloudy
9:58 AM 79.5 °F - 66.2 °F 64% 30.05 in 10.0 mi East 12.7 mph - N/A   Mostly Cloudy
10:58 AM 79.7 °F - 66.9 °F 65% 30.05 in 10.0 mi ENE 10.4 mph - N/A   Mostly Cloudy
11:13 AM 80.6 °F 83.2 °F 68.0 °F 65% 30.08 in 10.0 mi ENE 10.4 mph 23.0 mph N/A   Mostly Cloudy
11:23 AM 80.6 °F 83.2 °F 68.0 °F 65% 30.08 in 10.0 mi ENE 12.7 mph 21.9 mph N/A   Mostly Cloudy
11:33 AM 80.6 °F 83.2 °F 68.0 °F 65% 30.08 in 10.0 mi East 9.2 mph - N/A   Mostly Cloudy
11:58 AM 80.8 °F 83.1 °F 66.6 °F 62% 30.05 in 10.0 mi NE 10.4 mph - N/A   Scattered Clouds
12:22 PM 82.4 °F 84.6 °F 66.2 °F 58% 30.07 in 10.0 mi NE 13.8 mph 21.9 mph N/A   Scattered Clouds
12:33 PM 82.4 °F 84.6 °F 66.2 °F 58% 30.07 in 10.0 mi East 15.0 mph 21.9 mph N/A   Mostly Cloudy
12:50 PM 82.4 °F 84.6 °F 66.2 °F 58% 30.07 in 10.0 mi NE 12.7 mph 21.9 mph N/A   Mostly Cloudy
12:58 PM 81.9 °F 84.2 °F 66.6 °F 60% 30.03 in 10.0 mi NE 10.4 mph - N/A   Mostly Cloudy
1:58 PM 80.2 °F 82.6 °F 67.3 °F 64% 30.03 in 10.0 mi East 15.0 mph 20.7 mph N/A   Mostly Cloudy
2:34 PM 82.4 °F 84.6 °F 66.2 °F 58% 30.05 in 10.0 mi East 16.1 mph 20.7 mph N/A   Scattered Clouds
2:54 PM 82.4 °F 84.6 °F 66.2 °F 58% 30.05 in 10.0 mi East 12.7 mph - N/A   Scattered Clouds
2:58 PM 82.0 °F 84.3 °F 66.6 °F 59% 30.02 in 10.0 mi East 16.1 mph 20.7 mph N/A   Mostly Cloudy
3:09 PM 82.4 °F 84.6 °F 66.2 °F 58% 30.05 in 10.0 mi ENE 13.8 mph 21.9 mph N/A   Scattered Clouds
3:19 PM 82.4 °F 83.9 °F 64.4 °F 54% 30.04 in 10.0 mi East 15.0 mph 23.0 mph N/A   Scattered Clouds
3:24 PM 82.4 °F 84.6 °F 66.2 °F 58% 30.04 in 10.0 mi ENE 13.8 mph 23.0 mph N/A   Scattered Clouds
3:58 PM 80.1 °F 82.1 °F 65.8 °F 62% 30.01 in 10.0 mi ENE 15.0 mph 20.7 mph N/A   Overcast
4:58 PM 79.9 °F - 66.4 °F 63% 30.00 in 10.0 mi East 12.7 mph - N/A   Mostly Cloudy
5:12 PM 78.8 °F - 68.0 °F 69% 30.04 in 10.0 mi East 11.5 mph - N/A   Light Drizzle
5:20 PM 77.0 °F - 68.0 °F 74% 30.04 in 10.0 mi East 10.4 mph - N/A   Overcast
5:58 PM 78.3 °F - 65.8 °F 65% 30.01 in 10.0 mi ENE 11.5 mph - 0.00 in   Overcast
6:37 PM 77.0 °F - 68.0 °F 74% 30.06 in 10.0 mi ENE 10.4 mph - N/A   Light Drizzle
6:48 PM 75.2 °F - 68.0 °F 78% 30.06 in 10.0 mi East 6.9 mph - N/A   Overcast
6:53 PM 75.2 °F - 68.0 °F 78% 30.06 in 10.0 mi East 6.9 mph - N/A   Light Drizzle
6:58 PM 75.2 °F - 68.2 °F 79% 30.04 in 10.0 mi ENE 4.6 mph - 0.00 in   Light Drizzle
7:08 PM 75.2 °F - 68.0 °F 78% 30.07 in 10.0 mi East 6.9 mph - N/A   Mostly Cloudy
7:13 PM 75.2 °F - 68.0 °F 78% 30.07 in 10.0 mi East 6.9 mph - N/A   Overcast
7:33 PM 73.4 °F - 68.0 °F 83% 30.08 in 10.0 mi ENE 5.8 mph - N/A   Overcast
7:38 PM 73.4 °F - 66.2 °F 78% 30.08 in 10.0 mi ENE 5.8 mph - N/A   Overcast
7:42 PM 73.4 °F - 68.0 °F 83% 30.09 in 10.0 mi ENE 6.9 mph - N/A   Light Drizzle
7:47 PM 73.4 °F - 68.0 °F 83% 30.09 in 10.0 mi ENE 4.6 mph - N/A   Light Drizzle
7:52 PM 73.4 °F - 68.0 °F 83% 30.09 in 10.0 mi ENE 5.8 mph - N/A   Light Drizzle
7:57 PM 73.4 °F - 68.0 °F 83% 30.09 in 10.0 mi Variable 4.6 mph - N/A   Overcast
7:58 PM 73.4 °F - 68.0 °F 83% 30.06 in 10.0 mi Variable 4.6 mph - 0.00 in   Overcast
7:59 PM 73.4 °F - 68.0 °F 83% 30.09 in 10.0 mi ENE 5.8 mph - N/A   Light Drizzle
8:04 PM 73.4 °F - 68.0 °F 83% 30.09 in 10.0 mi ENE 4.6 mph - N/A   Light Drizzle
8:09 PM 73.4 °F - 68.0 °F 83% 30.09 in 10.0 mi ENE 4.6 mph - N/A   Light Drizzle
8:14 PM 73.4 °F - 68.0 °F 83% 30.09 in 10.0 mi ENE 3.5 mph - N/A Rain Light Rain
8:29 PM 73.4 °F - 68.0 °F 83% 30.10 in 10.0 mi Variable 2.3 mph - N/A   Light Drizzle
8:58 PM 73.2 °F - 68.2 °F 84% 30.07 in 10.0 mi ENE 6.9 mph - 0.00 in   Light Drizzle
9:46 PM 73.4 °F - 68.0 °F 83% 30.10 in 10.0 mi ENE 4.6 mph - N/A   Scattered Clouds
9:49 PM 73.4 °F - 68.0 °F 83% 30.10 in 10.0 mi East 5.8 mph - N/A   Drizzle
9:58 PM 73.4 °F - 68.2 °F 84% 30.07 in 10.0 mi ENE 5.8 mph - 0.00 in   Light Drizzle
10:15 PM 73.4 °F - 68.0 °F 83% 30.10 in 10.0 mi ENE 6.9 mph - N/A   Mostly Cloudy
10:32 PM 73.4 °F - 68.0 °F 83% 30.10 in 10.0 mi NE 4.6 mph - N/A   Light Drizzle
10:51 PM 73.4 °F - 68.0 °F 83% 30.10 in 10.0 mi ENE 5.8 mph - N/A   Mostly Cloudy
10:58 PM 73.9 °F - 68.0 °F 82% 30.07 in 10.0 mi ENE 4.6 mph - 0.00 in   Mostly Cloudy
11:26 PM 73.4 °F - 68.0 °F 83% 30.10 in 10.0 mi East 4.6 mph - N/A   Drizzle
11:49 PM 73.4 °F - 68.0 °F 83% 30.10 in 10.0 mi ENE 5.8 mph - N/A   Scattered Clouds
11:58 PM 73.0 °F - 68.4 °F 85% 30.07 in 10.0 mi East 5.8 mph - 0.00 in   Scattered Clouds